CAPE
66 2 0 0 0 0 0 0 64 611 1018 1213 1432 1620 1692 1780 1946 2127 2271 2282 2327 2263 2136 2226 2333 2343 2362 2338 2425 2387 2441 2400 2156 1958 1730 1647 1432 1347 809 241 33 42
77 93 185 71 0 0 0 0 0 171 471 974 1200 1385 1502 1522 1658 2063 2237 2270 2262 2274 2204 2231 2285 2311 2344 2318 2319 2392 2392 2445 2378 2176 2025 1894 1676 1592 1576 1016 525 475
84 117 103 132 46 0 0 0 0 65 354 749 1102 1296 1415 1444 1712 2085 2279 2295 2236 2276 2261 2259 2231 2184 2180 2215 2216 2344 2335 2383 2388 2318 2156 2038 1883 1866 1901 1730 1406 1468
114 102 116 149 126 2 0 0 0 100 320 582 1047 1286 1411 1494 1830 2052 2306 2750 2293 2268 2326 2321 2230 2016 2004 2102 2135 2262 2319 2330 2368 2285 2223 2157 2082 1994 2030 1952 1811 1888
226 124 116 126 161 44 0 0 0 47 497 586 878 1237 1442 1531 1850 2019 2250 2474 2421 2325 2343 2391 2269 2047 1975 1997 2023 2116 2230 2297 2352 2224 2194 2228 2196 2143 2088 2003 1851 1734
386 231 197 136 164 128 0 0 0 0 366 869 930 1176 1433 1542 1750 1964 2141 2372 2528 2438 2379 2430 2439 2261 2185 2028 1896 1939 2038 2235 2320 2240 2169 2254 2309 2308 2269 2265 2128 1891
444 317 234 187 144 148 90 0 0 0 22 695 1088 1214 1433 1542 1655 1833 2014 2196 2449 2535 2491 2515 2551 2374 2312 2185 1852 1884 1931 2137 2236 2229 2177 2222 2303 2359 2407 2418 2399 2252
484 369 287 248 185 129 224 166 22 0 0 109 978 1218 1419 1532 1604 1701 1846 2008 2223 2461 2543 2556 2603 2526 2335 2224 1984 1904 1846 1921 2138 2262 2289 2305 2322 2372 2445 2484 2494 2461
545 547 352 284 255 165 163 218 272 104 0 0 151 956 1325 1470 1533 1605 1708 1833 1962 2223 2454 2535 2542 2546 2377 2193 2092 2043 1977 1929 2075 2193 2304 2381 2418 2449 2444 2445 2472 2474
649 626 545 360 308 264 166 144 242 343 243 0 0 49 881 1353 1440 1491 1564 1700 1828 1956 2179 2362 2418 2416 2380 2247 2132 2142 2146 2092 2114 2185 2189 2232 2355 2463 2493 2470 2451 2464
643 684 654 566 391 319 253 150 140 272 430 357 81 0 36 564 1238 1375 1427 1472 1565 1670 1842 2055 2215 2285 2308 2270 2170 2122 2156 2207 2206 2234 2280 2254 2200 2236 2535 2500 2582 2584
707 712 673 663 567 392 320 234 142 130 306 579 483 196 61 60 347 988 1218 1296 1336 1408 1559 1772 1960 2108 2209 2247 2210 2176 2153 2191 2266 2301 2330 2378 2328 2180 2136 2230 2377 2536
828 859 884 849 735 635 424 301 209 126 110 338 720 640 372 205 149 303 764 997 1092 1208 1342 1543 1759 1946 2097 2209 2249 2244 2249 2255 2305 2351 2392 2437 2487 2451 2277 2197 2192 2217
920 962 1002 1021 1006 926 809 643 287 188 108 83 348 744 771 574 340 217 318 726 900 1002 1141 1324 1568 1776 1955 2102 2210 2270 2314 2352 2376 2417 2445 2454 2517 2583 2591 2546 2469 2352
1009 1066 1107 1147 1153 1148 1064 973 803 521 161 94 105 325 684 789 734 408 273 411 764 946 1036 1175 1402 1653 1818 1951 2085 2202 2288 2359 2401 2436 2447 2441 2436 2467 2533 2606 2664 2692
1063 1130 1204 1255 1267 1287 1265 1226 1115 947 702 154 97 82 234 577 755 750 613 385 522 840 1055 1150 1252 1451 1756 1870 1962 2064 2186 2286 2360 2407 2436 2440 2425 2399 2385 2389 2485 2630
1120 1204 1280 1335 1383 1401 1398 1394 1364 1263 1086 868 581 98 93 228 546 705 737 646 466 589 929 1160 1256 1320 1486 1734 1912 2008 2061 2154 2258 2339 2399 2443 2451 2451 2432 2398 2348 2355
1334 1333 1391 1444 1463 1495 1500 1514 1505 1491 1423 1288 1075 798 264 149 288 466 604 684 643 596 703 998 1217 1328 1404 1512 1706 1900 2013 2053 2114 2197 2268 2332 2389 2405 2407 2394 2373 2331
1683 1532 1563 1564 1586 1600 1619 1656 1692 1688 1660 1601 1519 1346 1042 733 255 328 452 514 616 613 628 795 1074 1253 1416 1495 1559 1681 1876 2004 2014 2060 2121 2177 2237 2290 2322 2334 2327 2327
1894 1742 1763 1742 1757 1762 1793 1891 1945 1961 1958 1922 1876 1780 1609 1284 899 514 388 461 517 499 527 628 842 1082 1313 1469 1564 1625 1703 1850 1916 1968 2010 2056 2104 2168 2225 2266 2286 2278
2095 1942 1940 1954 1975 2028 2071 2173 2234 2281 2266 2215 2158 2051 1917 1706 1429 1059 659 530 549 578 558 579 701 890 1110 1337 1498 1611 1679 1730 1783 1842 1905 1961 2016 2077 2156 2210 2231 2236
2128 2165 2203 1984 2154 2221 2326 2393 2461 2501 2546 2543 2462 2317 2118 1875 1636 1308 1007 683 652 670 692 722 735 781 914 1107 1327 1500 1636 1718 1764 1775 1804 1858 1924 1991 2070 2124 2155 2167
2475 2476 2435 2281 2296 2390 2496 2573 2648 2678 2685 2717 2739 2666 2438 2154 1792 1533 1271 982 729 755 762 792 828 862 900 970 1092 1274 1428 1572 1687 1738 1746 1768 1839 1904 1961 2005 2044 2058
2736 2656 2598 2608 2588 2636 2708 2764 2826 2857 2832 2795 2832 2855 2775 2502 2060 1732 1450 1151 946 893 851 852 886 931 990 1022 1053 1117 1202 1306 1432 1510 1582 1654 1734 1814 1882 1938 1995 2537
2615 2948 2992 2946 2910 2879 2905 2925 2950 2970 2978 2940 2922 2936 2900 2837 2746 2142 1589 1290 1103 1029 992 948 932 951 1003 1078 1134 1175 1216 1240 1265 1303 1363 1452 1552 1651 1747 1832 1884 2129
2291 2573 2953 3062 3086 3031 3020 3027 3045 3065 3048 3054 3060 3017 2992 2951 2844 2769 2396 1608 1244 1144 1100 1067 1039 1017 1035 1084 1156 1225 1283 1302 1303 1300 1307 1337 1398 1473 1558 1638 1709 1760
Wind_Speed
nan nan nan nan nan nan nan nan nan 7 7 7 6 6 6 7 7 7 7 7 8 8 7 7 6 6 5 4 4 5 5 6 7 8 9 10 11 9 9 9 nan nan
nan nan 5 nan nan nan nan nan nan 7 7 7 6 5 5 5 6 5 6 7 7 7 7 7 6 6 5 5 5 4 6 7 7 8 8 9 10 9 10 8 8 8
nan 6 5 4 nan nan nan nan nan nan 6 6 6 6 5 4 4 5 5 5 6 6 6 6 6 7 6 5 5 5 5 6 7 7 7 8 9 9 10 7 7 7
8 7 6 6 6 nan nan nan nan nan 8 7 6 6 5 4 3 3 5 5 5 6 5 4 5 6 6 6 4 5 5 6 7 6 6 8 8 8 10 8 6 7
9 10 10 9 8 nan nan nan nan nan 7 6 7 7 6 5 3 3 3 5 5 5 4 4 4 5 6 6 5 4 5 5 7 7 7 7 7 7 8 8 8 6
11 11 11 10 9 8 nan nan nan nan 7 8 6 6 5 5 4 3 3 3 4 5 4 3 3 5 5 6 5 5 4 4 5 5 6 7 7 6 6 6 7 7
9 11 11 12 11 10 nan nan nan nan nan 7 9 6 5 4 4 4 3 4 4 4 5 4 3 4 5 5 5 6 5 4 4 4 5 7 7 7 6 5 5 7
10 12 12 13 12 12 10 10 nan nan nan 10 7 6 6 3 3 4 3 3 3 4 4 4 4 4 5 5 5 5 5 3 3 3 5 6 6 7 7 5 5 6
12 12 12 12 11 12 10 9 10 11 nan nan 8 8 7 5 4 3 3 3 3 3 3 4 4 4 5 6 6 5 4 3 3 4 5 6 6 7 8 7 6 6
11 12 12 11 10 11 10 10 10 10 11 nan nan nan 7 6 5 4 4 4 3 3 3 3 4 5 6 6 6 5 5 4 3 4 5 6 7 7 7 7 7 7
10 12 11 10 9 11 10 11 11 10 11 9 nan nan nan 8 7 6 5 4 3 3 3 3 3 4 5 6 6 6 5 4 4 4 5 6 6 6 7 7 7 7
8 10 10 9 10 11 11 12 13 12 12 11 10 8 nan nan 7 7 6 5 5 4 3 3 3 4 5 6 6 6 6 5 5 5 5 5 6 6 6 6 7 7
7 9 11 11 12 13 14 14 14 13 13 12 12 11 9 8 8 7 7 6 6 6 5 4 4 4 6 7 7 7 6 5 5 5 5 6 6 6 6 6 6 6
6 9 11 12 14 15 14 14 13 13 13 nan 15 12 10 9 8 9 9 8 7 7 6 6 5 5 6 7 8 8 7 7 6 5 5 6 6 6 6 6 6 6
7 10 12 13 14 14 13 12 12 12 14 nan 14 12 12 11 11 11 11 9 7 7 7 7 6 5 7 8 9 9 9 8 7 6 6 6 7 6 6 6 6 5
6 8 11 12 12 12 11 11 12 13 13 13 nan nan 13 13 13 12 12 10 8 7 8 8 7 8 6 2 6 10 11 11 10 9 8 7 7 7 6 5 5 5
6 7 9 10 11 11 12 12 12 14 14 13 12 nan nan 13 13 12 11 11 10 8 8 9 10 9 3 4 5 6 11 12 11 11 11 9 8 7 6 6 5 4
7 7 7 9 11 12 12 13 13 13 13 13 12 11 13 14 12 10 11 11 11 10 8 9 11 8 5 5 6 7 9 12 14 13 12 11 10 8 8 7 6 5
9 7 6 7 9 12 13 14 13 13 12 13 12 13 15 13 11 11 11 12 11 10 9 9 11 9 8 6 7 8 8 11 15 15 13 12 11 10 9 8 8 7
12 10 8 7 8 10 13 14 14 12 12 13 15 16 14 13 12 11 12 12 12 11 11 11 11 11 10 8 8 8 9 12 15 15 15 13 12 11 10 9 9 8
16 14 12 11 10 10 11 12 13 14 14 15 15 15 14 13 13 13 13 13 12 13 13 12 13 10 12 10 9 10 10 14 17 17 17 16 14 13 11 10 10 10
19 17 16 15 14 12 10 9 11 12 14 16 16 15 15 16 16 15 14 14 14 14 14 12 13 12 14 13 12 12 14 18 19 18 18 18 16 15 14 13 12 11
24 21 19 18 16 14 11 9 9 10 13 17 17 16 16 15 15 15 17 17 15 15 13 13 14 15 16 15 15 15 20 20 18 19 20 19 18 18 16 15 14 13
26 22 21 20 18 15 13 12 11 11 12 15 15 15 15 15 17 17 17 17 15 14 14 14 15 16 17 17 17 19 20 19 18 19 18 19 20 21 20 19 16 11
29 25 21 20 18 17 17 15 14 13 12 13 13 14 15 18 19 18 17 17 15 14 13 12 15 16 18 18 19 21 20 19 19 19 17 18 21 22 23 23 21 17
36 28 23 21 19 19 20 19 19 18 16 15 14 14 14 16 17 18 16 16 17 16 15 13 13 16 19 18 20 22 22 20 20 19 16 15 19 22 25 25 24 23
Wind_Direction
nan nan nan nan nan nan nan nan nan 120 118 118 109 106 100 103 117 112 106 107 101 97 99 106 116 119 124 146 153 157 153 145 148 152 144 141 135 135 126 124 nan nan
nan nan 171 nan nan nan nan nan nan 125 121 120 122 130 126 132 122 113 103 99 100 95 101 106 114 118 128 144 157 161 162 164 150 161 152 146 139 141 134 133 126 135
nan 181 170 163 nan nan nan nan nan nan 131 129 145 144 134 139 125 121 105 97 92 95 103 113 120 125 129 136 151 157 158 158 147 156 158 144 148 146 141 148 151 139
176 174 176 176 178 nan nan nan nan nan 157 164 140 134 142 144 144 115 110 101 97 97 107 122 119 129 135 137 152 151 153 149 147 162 158 161 159 156 149 157 157 160
188 184 185 186 186 nan nan nan nan nan 170 154 162 167 163 161 151 123 107 105 103 100 103 105 130 129 137 140 145 142 154 148 161 171 166 163 164 173 161 162 152 149
204 197 194 194 192 191 nan nan nan nan 191 186 167 181 173 169 153 127 102 86 93 90 89 96 110 123 131 133 135 126 138 144 156 174 168 164 167 177 178 175 155 149
224 212 202 201 198 194 nan nan nan nan nan 197 203 188 192 179 144 118 98 81 78 81 79 83 99 114 130 132 125 120 125 133 154 155 153 153 166 163 175 189 167 152
233 225 216 210 204 202 198 194 nan nan nan 213 211 196 207 186 140 127 119 94 85 82 84 89 103 117 129 132 116 114 119 135 130 130 132 136 153 148 155 167 175 154
229 230 228 220 213 208 205 200 198 204 nan nan 215 213 211 203 177 145 132 121 104 97 97 102 107 127 143 137 123 112 105 115 124 127 122 121 126 126 136 151 155 152
230 229 232 228 219 213 212 211 213 210 213 nan nan nan 223 212 203 180 170 153 125 122 123 117 125 140 150 144 127 122 119 111 122 127 125 122 120 123 126 133 134 140
236 234 233 230 223 216 211 214 219 220 219 222 nan nan nan 226 210 202 187 176 144 129 131 129 121 136 147 147 147 145 134 130 130 137 133 124 122 124 125 125 127 124
238 232 230 230 229 222 216 214 215 219 224 225 229 228 nan nan 229 217 202 183 167 150 144 136 145 156 154 153 152 157 158 154 152 151 145 146 142 138 136 135 124 122
236 225 220 221 224 224 222 217 214 215 222 226 231 232 233 233 233 231 215 202 181 173 162 158 161 172 173 170 168 171 171 172 166 165 162 165 163 153 153 150 140 135
233 223 216 216 219 224 227 224 220 218 218 nan 229 233 234 233 234 239 232 219 197 187 178 181 182 185 186 184 183 183 186 187 188 185 177 175 173 171 169 161 152 150
234 226 220 218 219 222 226 228 228 226 225 nan 226 228 230 230 229 236 241 236 215 202 193 191 187 186 194 197 200 196 197 196 200 199 195 185 179 175 177 170 164 158
241 234 230 226 223 221 219 220 221 225 228 227 nan nan 227 230 230 234 241 246 237 218 203 194 188 198 196 206 216 211 209 205 207 206 206 201 193 187 182 181 165 161
235 234 232 231 228 223 220 219 218 220 223 224 223 nan nan 228 233 235 239 242 244 235 216 195 191 200 210 234 228 229 220 215 214 214 215 211 208 205 191 186 179 172
230 233 231 227 227 225 224 223 222 222 221 223 223 222 222 225 228 232 237 242 241 239 228 207 196 198 226 242 247 241 231 220 218 218 220 218 215 211 208 205 194 188
227 230 233 230 227 226 225 226 226 223 222 222 221 223 224 224 221 226 232 240 243 241 233 220 207 209 226 241 251 254 249 232 220 223 224 223 222 218 214 213 212 206
222 221 222 224 228 228 227 227 226 223 222 221 221 225 226 224 223 222 225 234 241 241 235 226 220 221 238 239 245 255 254 243 223 226 227 227 229 227 224 222 222 218
220 220 219 220 222 224 225 226 227 224 224 224 224 225 226 226 226 224 222 225 231 237 235 231 227 240 249 248 244 250 251 244 225 223 224 227 231 232 230 231 230 229
221 222 222 224 226 226 225 224 227 231 230 229 226 224 223 225 225 226 225 224 225 229 232 230 232 254 261 261 258 251 255 236 226 223 222 223 228 232 233 233 234 235
219 220 222 225 229 231 229 227 227 230 232 233 230 227 226 227 227 228 227 228 228 228 228 225 230 252 269 273 270 268 253 237 233 227 222 221 221 228 231 233 234 236
224 225 225 226 230 232 233 231 230 227 233 240 238 235 230 228 230 228 231 233 233 230 230 224 224 242 267 270 276 276 269 252 242 237 228 223 221 223 227 229 231 243
221 224 227 229 230 232 233 235 236 234 235 241 242 239 235 233 233 231 232 235 237 236 237 232 225 236 263 272 279 281 275 255 251 245 238 231 229 226 227 227 227 229
215 218 224 227 229 230 233 235 234 233 234 238 241 242 242 242 239 238 238 238 241 242 241 240 235 237 254 279 284 288 292 270 256 253 248 243 239 236 232 231 230 229